contact:dominique.lefevre@mio.osupytheas.fr, maurice.libes@osupytheas.fr, didier.mallarino@osupytheas.fr
Project:EMSO http://www.emso-fr.org/EMSO-France
Depth: 2436.0 m
Title:EMSO Ligure Ouest : Data MII capteur MICROCAT
DateTime_Computer,Latitude,Longitude,Temperature,Conductivity,Pressure,DateTime_Instrument
DateTime_Computer,Latitude,Longitude,degC,S m-1,dbar,DateTime_Instrument
2022-05-12T00:00:59Z,42.805,6.029,13.3005,4.60037,2469.83,2022-5-12T02:02:39Z
2022-05-12T00:04:02Z,42.805,6.029,13.3002,4.60036,2469.844,2022-5-12T02:05:42Z
2022-05-12T00:07:05Z,42.805,6.029,13.3004,4.60036,2469.853,2022-5-12T02:08:45Z
2022-05-12T00:10:08Z,42.805,6.029,13.3003,4.60037,2469.853,2022-5-12T02:11:49Z
2022-05-12T00:13:11Z,42.805,6.029,13.3006,4.60036,2469.853,2022-5-12T02:14:52Z
2022-05-12T00:16:14Z,42.805,6.029,13.3006,4.60037,2469.853,2022-5-12T02:17:55Z
2022-05-12T00:19:17Z,42.805,6.029,13.3004,4.60036,2469.867,2022-5-12T02:20:58Z
2022-05-12T00:22:20Z,42.805,6.029,13.3004,4.60036,2469.867,2022-5-12T02:24:01Z
2022-05-12T00:25:24Z,42.805,6.029,13.3004,4.60036,2469.853,2022-5-12T02:27:04Z
2022-05-12T00:28:27Z,42.805,6.029,13.3000,4.60036,2469.89,2022-5-12T02:30:07Z
2022-05-12T00:31:30Z,42.805,6.029,13.3004,4.60037,2469.853,2022-5-12T02:33:10Z
2022-05-12T00:34:33Z,42.805,6.029,13.3002,4.60036,2469.853,2022-5-12T02:36:14Z
2022-05-12T00:37:36Z,42.805,6.029,13.3005,4.60037,2469.83,2022-5-12T02:39:17Z
2022-05-12T00:40:39Z,42.805,6.029,13.3000,4.60036,2469.89,2022-5-12T02:42:20Z
2022-05-12T00:43:42Z,42.805,6.029,13.3000,4.60037,2469.89,2022-5-12T02:45:23Z
2022-05-12T00:46:45Z,42.805,6.029,13.3006,4.60038,2469.867,2022-5-12T02:48:26Z
2022-05-12T00:49:49Z,42.805,6.029,13.3002,4.60037,2469.89,2022-5-12T02:51:29Z
2022-05-12T00:52:52Z,42.805,6.029,13.3004,4.60037,2469.876,2022-5-12T02:54:32Z
2022-05-12T00:55:55Z,42.805,6.029,13.3006,4.60036,2469.9,2022-5-12T02:57:35Z
2022-05-12T00:58:58Z,42.805,6.029,13.3005,4.60037,2469.89,2022-5-12T03:00:39Z
2022-05-12T01:02:01Z,42.805,6.029,13.3004,4.60037,2469.914,2022-5-12T03:03:42Z
2022-05-12T01:05:04Z,42.805,6.029,13.3006,4.60037,2469.876,2022-5-12T03:06:45Z
2022-05-12T01:08:07Z,42.805,6.029,13.3003,4.60037,2469.867,2022-5-12T03:09:48Z
2022-05-12T01:11:10Z,42.805,6.029,13.3001,4.60037,2469.853,2022-5-12T03:12:51Z
2022-05-12T01:14:14Z,42.805,6.029,13.3002,4.60037,2469.914,2022-5-12T03:15:54Z
2022-05-12T01:17:17Z,42.805,6.029,13.3004,4.60037,2469.914,2022-5-12T03:18:57Z
2022-05-12T01:20:20Z,42.805,6.029,13.3004,4.60038,2469.876,2022-5-12T03:22:00Z
2022-05-12T01:23:23Z,42.805,6.029,13.3002,4.60036,2469.876,2022-5-12T03:25:04Z
2022-05-12T01:26:26Z,42.805,6.029,13.3004,4.60038,2469.9,2022-5-12T03:28:07Z
2022-05-12T01:29:29Z,42.805,6.029,13.3007,4.60038,2469.9,2022-5-12T03:31:10Z
2022-05-12T01:32:32Z,42.805,6.029,13.3008,4.60039,2469.863,2022-5-12T03:34:13Z
2022-05-12T01:35:35Z,42.805,6.029,13.3005,4.60038,2469.876,2022-5-12T03:37:16Z
2022-05-12T01:38:38Z,42.805,6.029,13.3004,4.60037,2469.876,2022-5-12T03:40:19Z
2022-05-12T01:41:42Z,42.805,6.029,13.3006,4.60037,2469.914,2022-5-12T03:43:22Z
2022-05-12T01:44:45Z,42.805,6.029,13.3006,4.60039,2469.9,2022-5-12T03:46:25Z
2022-05-12T01:47:48Z,42.805,6.029,13.3007,4.60039,2469.9,2022-5-12T03:49:28Z
2022-05-12T01:50:51Z,42.805,6.029,13.3002,4.60037,2469.9,2022-5-12T03:52:32Z
2022-05-12T01:53:54Z,42.805,6.029,13.3003,4.60037,2469.914,2022-5-12T03:55:35Z
2022-05-12T01:56:57Z,42.805,6.029,13.3004,4.60037,2469.923,2022-5-12T03:58:38Z
2022-05-12T02:00:00Z,42.805,6.029,13.3004,4.60037,2469.923,2022-5-12T04:01:41Z
2022-05-12T02:03:03Z,42.805,6.029,13.3006,4.60037,2469.923,2022-5-12T04:04:44Z
2022-05-12T02:06:07Z,42.805,6.029,13.3003,4.60037,2469.9,2022-5-12T04:07:47Z
2022-05-12T02:09:10Z,42.805,6.029,13.3002,4.60038,2469.914,2022-5-12T04:10:50Z
2022-05-12T02:12:13Z,42.805,6.029,13.3003,4.60037,2469.914,2022-5-12T04:13:53Z
2022-05-12T02:15:16Z,42.805,6.029,13.3004,4.60036,2469.89,2022-5-12T04:16:57Z
2022-05-12T02:18:19Z,42.805,6.029,13.3002,4.60038,2469.923,2022-5-12T04:20:00Z
2022-05-12T02:21:22Z,42.805,6.029,13.3004,4.60036,2469.96,2022-5-12T04:23:03Z
2022-05-12T02:24:25Z,42.805,6.029,13.3003,4.60038,2469.9,2022-5-12T04:26:06Z
2022-05-12T02:27:28Z,42.805,6.029,13.3002,4.60036,2469.923,2022-5-12T04:29:09Z
2022-05-12T02:30:31Z,42.805,6.029,13.3004,4.60038,2469.947,2022-5-12T04:32:12Z
2022-05-12T02:33:35Z,42.805,6.029,13.3003,4.60037,2469.923,2022-5-12T04:35:15Z
2022-05-12T02:36:38Z,42.805,6.029,13.3003,4.60037,2469.937,2022-5-12T04:38:18Z
2022-05-12T02:39:41Z,42.805,6.029,13.3004,4.60037,2469.96,2022-5-12T04:41:21Z
2022-05-12T02:42:44Z,42.805,6.029,13.3007,4.60037,2469.947,2022-5-12T04:44:25Z
2022-05-12T02:45:47Z,42.805,6.029,13.3004,4.60037,2469.947,2022-5-12T04:47:28Z
2022-05-12T02:48:50Z,42.805,6.029,13.2999,4.60039,2469.97,2022-5-12T04:50:31Z
2022-05-12T02:51:53Z,42.805,6.029,13.3004,4.60037,2469.937,2022-5-12T04:53:34Z
2022-05-12T02:54:56Z,42.805,6.029,13.3006,4.60038,2469.923,2022-5-12T04:56:37Z
2022-05-12T02:58:00Z,42.805,6.029,13.3006,4.60037,2469.937,2022-5-12T04:59:40Z
2022-05-12T03:01:03Z,42.805,6.029,13.2999,4.60037,2469.947,2022-5-12T05:02:43Z
2022-05-12T03:04:06Z,42.805,6.029,13.3003,4.60039,2469.923,2022-5-12T05:05:46Z
2022-05-12T03:07:09Z,42.805,6.029,13.3008,4.60039,2469.947,2022-5-12T05:08:50Z
2022-05-12T03:10:12Z,42.805,6.029,13.3006,4.60037,2469.96,2022-5-12T05:11:53Z
2022-05-12T03:13:15Z,42.805,6.029,13.3000,4.60039,2469.97,2022-5-12T05:14:56Z
2022-05-12T03:16:18Z,42.805,6.029,13.3001,4.60037,2469.937,2022-5-12T05:17:59Z
2022-05-12T03:19:21Z,42.805,6.029,13.3009,4.60039,2469.96,2022-5-12T05:21:02Z
2022-05-12T03:22:25Z,42.805,6.029,13.3004,4.60038,2469.947,2022-5-12T05:24:05Z
2022-05-12T03:25:28Z,42.805,6.029,13.3004,4.60037,2469.947,2022-5-12T05:27:08Z
2022-05-12T03:28:31Z,42.805,6.029,13.3006,4.60037,2469.97,2022-5-12T05:30:11Z
2022-05-12T03:31:34Z,42.805,6.029,13.3003,4.60037,2469.937,2022-5-12T05:33:15Z
2022-05-12T03:34:37Z,42.805,6.029,13.3005,4.60038,2469.984,2022-5-12T05:36:18Z
2022-05-12T03:37:40Z,42.805,6.029,13.3004,4.60037,2469.97,2022-5-12T05:39:21Z
2022-05-12T03:40:43Z,42.805,6.029,13.3004,4.60037,2469.97,2022-5-12T05:42:24Z
2022-05-12T03:43:46Z,42.805,6.029,13.3004,4.60037,2469.993,2022-5-12T05:45:27Z
2022-05-12T03:46:50Z,42.805,6.029,13.3004,4.60037,2469.947,2022-5-12T05:48:30Z
2022-05-12T03:49:53Z,42.805,6.029,13.3004,4.60038,2469.984,2022-5-12T05:51:33Z
2022-05-12T03:52:56Z,42.805,6.029,13.3006,4.60036,2469.97,2022-5-12T05:54:36Z
2022-05-12T03:55:59Z,42.805,6.029,13.3004,4.60038,2469.947,2022-5-12T05:57:40Z
2022-05-12T03:59:02Z,42.805,6.029,13.3004,4.60037,2469.947,2022-5-12T06:00:43Z
2022-05-12T04:02:05Z,42.805,6.029,13.3005,4.60039,2469.947,2022-5-12T06:03:46Z
2022-05-12T04:05:08Z,42.805,6.029,13.3002,4.60038,2470.003,2022-5-12T06:06:49Z
2022-05-12T04:08:11Z,42.805,6.029,13.3004,4.60038,2469.923,2022-5-12T06:09:52Z
2022-05-12T04:11:15Z,42.805,6.029,13.3002,4.60039,2469.993,2022-5-12T06:12:55Z
2022-05-12T04:14:18Z,42.805,6.029,13.3006,4.60037,2469.947,2022-5-12T06:15:58Z
2022-05-12T04:17:21Z,42.805,6.029,13.3004,4.60038,2470.03,2022-5-12T06:19:01Z
2022-05-12T04:20:24Z,42.805,6.029,13.3004,4.60037,2470.007,2022-5-12T06:22:04Z
2022-05-12T04:23:27Z,42.805,6.029,13.3005,4.60037,2469.984,2022-5-12T06:25:08Z
2022-05-12T04:26:30Z,42.805,6.029,13.3002,4.60037,2469.984,2022-5-12T06:28:11Z
2022-05-12T04:29:33Z,42.805,6.029,13.2999,4.60037,2469.96,2022-5-12T06:31:14Z
2022-05-12T04:32:36Z,42.805,6.029,13.3002,4.60037,2470.007,2022-5-12T06:34:17Z
2022-05-12T04:35:39Z,42.805,6.029,13.3003,4.60038,2469.993,2022-5-12T06:37:20Z
2022-05-12T04:38:43Z,42.805,6.029,13.3000,4.60039,2469.993,2022-5-12T06:40:23Z
2022-05-12T04:41:46Z,42.805,6.029,13.3005,4.60039,2469.96,2022-5-12T06:43:26Z
2022-05-12T04:44:49Z,42.805,6.029,13.3001,4.60037,2469.97,2022-5-12T06:46:29Z
2022-05-12T04:47:52Z,42.805,6.029,13.3002,4.60039,2469.96,2022-5-12T06:49:33Z
2022-05-12T04:50:55Z,42.805,6.029,13.2999,4.60037,2469.993,2022-5-12T06:52:36Z
2022-05-12T04:53:58Z,42.805,6.029,13.3003,4.60038,2470.04,2022-5-12T06:55:39Z
2022-05-12T04:57:01Z,42.805,6.029,13.3006,4.60037,2470.007,2022-5-12T06:58:42Z
2022-05-12T05:00:04Z,42.805,6.029,13.3003,4.60038,2469.97,2022-5-12T07:01:45Z
2022-05-12T05:03:08Z,42.805,6.029,13.3002,4.60037,2469.97,2022-5-12T07:04:48Z
2022-05-12T05:06:11Z,42.805,6.029,13.3003,4.60038,2469.993,2022-5-12T07:07:51Z
2022-05-12T05:09:14Z,42.805,6.029,13.3004,4.60037,2469.993,2022-5-12T07:10:54Z
2022-05-12T05:12:17Z,42.805,6.029,13.3006,4.60036,2469.96,2022-5-12T07:13:58Z
2022-05-12T05:15:20Z,42.805,6.029,13.3002,4.60037,2470.007,2022-5-12T07:17:01Z
2022-05-12T05:18:23Z,42.805,6.029,13.3000,4.60037,2469.993,2022-5-12T07:20:04Z
2022-05-12T05:21:26Z,42.805,6.029,13.3003,4.60037,2469.993,2022-5-12T07:23:07Z
2022-05-12T05:24:29Z,42.805,6.029,13.3005,4.60038,2469.97,2022-5-12T07:26:10Z
2022-05-12T05:27:33Z,42.805,6.029,13.3005,4.60039,2469.993,2022-5-12T07:29:13Z
2022-05-12T05:30:36Z,42.805,6.029,13.3003,4.60037,2469.97,2022-5-12T07:32:16Z
2022-05-12T05:33:39Z,42.805,6.029,13.3004,4.60039,2469.993,2022-5-12T07:35:19Z
2022-05-12T05:36:42Z,42.805,6.029,13.3004,4.60036,2469.984,2022-5-12T07:38:23Z
2022-05-12T05:39:45Z,42.805,6.029,13.3004,4.60038,2469.984,2022-5-12T07:41:26Z
2022-05-12T05:42:48Z,42.805,6.029,13.3004,4.60037,2469.993,2022-5-12T07:44:29Z
2022-05-12T05:45:51Z,42.805,6.029,13.3001,4.60038,2469.947,2022-5-12T07:47:32Z
2022-05-12T05:48:54Z,42.805,6.029,13.3002,4.60037,2469.97,2022-5-12T07:50:35Z
2022-05-12T05:51:57Z,42.805,6.029,13.2999,4.60037,2469.947,2022-5-12T07:53:38Z
2022-05-12T05:55:01Z,42.805,6.029,13.3004,4.60037,2469.984,2022-5-12T07:56:41Z
2022-05-12T05:58:04Z,42.805,6.029,13.3003,4.60037,2469.947,2022-5-12T07:59:44Z
2022-05-12T06:01:07Z,42.805,6.029,13.3001,4.60037,2469.984,2022-5-12T08:02:47Z
2022-05-12T06:04:10Z,42.805,6.029,13.3000,4.60038,2469.97,2022-5-12T08:05:51Z
2022-05-12T06:07:13Z,42.805,6.029,13.3000,4.60036,2469.97,2022-5-12T08:08:54Z
2022-05-12T06:10:16Z,42.805,6.029,13.3006,4.60037,2469.97,2022-5-12T08:11:57Z
2022-05-12T06:13:19Z,42.805,6.029,13.3004,4.60036,2469.97,2022-5-12T08:15:00Z
2022-05-12T06:16:22Z,42.805,6.029,13.3001,4.60036,2469.97,2022-5-12T08:18:03Z
2022-05-12T06:19:26Z,42.805,6.029,13.3001,4.60037,2469.97,2022-5-12T08:21:06Z
2022-05-12T06:22:29Z,42.805,6.029,13.3002,4.60037,2469.984,2022-5-12T08:24:09Z
2022-05-12T06:25:32Z,42.805,6.029,13.3004,4.60036,2470.017,2022-5-12T08:27:12Z
2022-05-12T06:28:35Z,42.805,6.029,13.3002,4.60036,2469.984,2022-5-12T08:30:16Z
2022-05-12T06:31:38Z,42.805,6.029,13.2999,4.60036,2469.97,2022-5-12T08:33:19Z
2022-05-12T06:34:41Z,42.805,6.029,13.3000,4.60036,2469.937,2022-5-12T08:36:22Z
2022-05-12T06:37:44Z,42.805,6.029,13.3004,4.60037,2469.96,2022-5-12T08:39:25Z
2022-05-12T06:40:47Z,42.805,6.029,13.3001,4.60036,2469.947,2022-5-12T08:42:28Z
2022-05-12T06:43:51Z,42.805,6.029,13.3006,4.60036,2469.97,2022-5-12T08:45:31Z
2022-05-12T06:46:54Z,42.805,6.029,13.3000,4.60037,2469.984,2022-5-12T08:48:34Z
2022-05-12T06:49:57Z,42.805,6.029,13.3004,4.60035,2469.97,2022-5-12T08:51:37Z
2022-05-12T06:53:00Z,42.805,6.029,13.3002,4.60036,2469.937,2022-5-12T08:54:40Z
2022-05-12T06:56:03Z,42.805,6.029,13.3004,4.60036,2469.97,2022-5-12T08:57:44Z
2022-05-12T06:59:06Z,42.805,6.029,13.3002,4.60035,2469.97,2022-5-12T09:00:47Z
2022-05-12T07:02:09Z,42.805,6.029,13.3000,4.60036,2469.984,2022-5-12T09:03:50Z
2022-05-12T07:05:12Z,42.805,6.029,13.3002,4.60035,2469.97,2022-5-12T09:06:53Z
2022-05-12T07:08:15Z,42.805,6.029,13.2998,4.60036,2469.97,2022-5-12T09:09:56Z
2022-05-12T07:11:19Z,42.805,6.029,13.3003,4.60036,2469.947,2022-5-12T09:12:59Z
2022-05-12T07:14:22Z,42.805,6.029,13.3000,4.60036,2469.947,2022-5-12T09:16:02Z
2022-05-12T07:17:25Z,42.805,6.029,13.2999,4.60036,2469.923,2022-5-12T09:19:05Z
2022-05-12T07:20:28Z,42.805,6.029,13.3003,4.60036,2469.96,2022-5-12T09:22:09Z
2022-05-12T07:23:31Z,42.805,6.029,13.3003,4.60036,2469.937,2022-5-12T09:25:12Z
2022-05-12T07:26:34Z,42.805,6.029,13.3005,4.60036,2469.97,2022-5-12T09:28:15Z
2022-05-12T07:29:37Z,42.805,6.029,13.3000,4.60034,2469.923,2022-5-12T09:31:18Z
2022-05-12T07:32:40Z,42.805,6.029,13.3000,4.60035,2469.947,2022-5-12T09:34:21Z
2022-05-12T07:35:44Z,42.805,6.029,13.3004,4.60035,2469.937,2022-5-12T09:37:24Z
2022-05-12T07:38:47Z,42.805,6.029,13.2999,4.60034,2469.96,2022-5-12T09:40:27Z
2022-05-12T07:41:50Z,42.805,6.029,13.2999,4.60036,2469.9,2022-5-12T09:43:30Z
2022-05-12T07:44:53Z,42.805,6.029,13.3003,4.60037,2469.923,2022-5-12T09:46:34Z
2022-05-12T07:47:56Z,42.805,6.029,13.3000,4.60035,2469.97,2022-5-12T09:49:37Z
2022-05-12T07:50:59Z,42.805,6.029,13.2999,4.60034,2469.937,2022-5-12T09:52:40Z
2022-05-12T07:54:02Z,42.805,6.029,13.3001,4.60033,2469.923,2022-5-12T09:55:43Z
2022-05-12T07:57:05Z,42.805,6.029,13.3002,4.60034,2469.96,2022-5-12T09:58:46Z
2022-05-12T08:00:09Z,42.805,6.029,13.3000,4.60036,2469.937,2022-5-12T10:01:49Z
2022-05-12T08:03:12Z,42.805,6.029,13.3000,4.60035,2469.937,2022-5-12T10:04:52Z
2022-05-12T08:06:15Z,42.805,6.029,13.3002,4.60033,2469.96,2022-5-12T10:07:55Z
2022-05-12T08:09:18Z,42.805,6.029,13.3001,4.60035,2469.937,2022-5-12T10:10:59Z
2022-05-12T08:12:21Z,42.805,6.029,13.3002,4.60035,2469.923,2022-5-12T10:14:02Z
2022-05-12T08:15:24Z,42.805,6.029,13.3003,4.60034,2469.96,2022-5-12T10:17:05Z
2022-05-12T08:18:27Z,42.805,6.029,13.3000,4.60035,2469.923,2022-5-12T10:20:08Z
2022-05-12T08:21:30Z,42.805,6.029,13.3004,4.60034,2469.909,2022-5-12T10:23:11Z
2022-05-12T08:24:34Z,42.805,6.029,13.3001,4.60034,2469.947,2022-5-12T10:26:14Z
2022-05-12T08:27:37Z,42.805,6.029,13.3008,4.60034,2469.923,2022-5-12T10:29:17Z
2022-05-12T08:30:40Z,42.805,6.029,13.3000,4.60035,2469.909,2022-5-12T10:32:20Z
2022-05-12T08:33:43Z,42.805,6.029,13.3000,4.60034,2469.914,2022-5-12T10:35:24Z
2022-05-12T08:36:46Z,42.805,6.029,13.3000,4.60035,2469.923,2022-5-12T10:38:27Z
2022-05-12T08:39:49Z,42.805,6.029,13.3004,4.60035,2469.937,2022-5-12T10:41:30Z
2022-05-12T08:42:52Z,42.805,6.029,13.3004,4.60034,2469.9,2022-5-12T10:44:33Z
2022-05-12T08:45:55Z,42.805,6.029,13.3001,4.60036,2469.937,2022-5-12T10:47:36Z
2022-05-12T08:48:59Z,42.805,6.029,13.3004,4.60036,2469.876,2022-5-12T10:50:39Z
2022-05-12T08:52:02Z,42.805,6.029,13.3000,4.60035,2469.937,2022-5-12T10:53:42Z
2022-05-12T08:55:05Z,42.805,6.029,13.3001,4.60035,2469.914,2022-5-12T10:56:45Z
2022-05-12T08:58:08Z,42.805,6.029,13.3001,4.60033,2469.9,2022-5-12T10:59:49Z
2022-05-12T09:01:11Z,42.805,6.029,13.3005,4.60034,2469.9,2022-5-12T11:02:52Z
2022-05-12T09:04:14Z,42.805,6.029,13.3002,4.60034,2469.9,2022-5-12T11:05:55Z
2022-05-12T09:07:17Z,42.805,6.029,13.3004,4.60034,2469.937,2022-5-12T11:08:58Z
2022-05-12T09:10:20Z,42.805,6.029,13.3004,4.60034,2469.89,2022-5-12T11:12:01Z
2022-05-12T09:13:24Z,42.805,6.029,13.2999,4.60034,2469.937,2022-5-12T11:15:04Z
2022-05-12T09:16:27Z,42.805,6.029,13.2998,4.60036,2469.9,2022-5-12T11:18:07Z
2022-05-12T09:19:30Z,42.805,6.029,13.3001,4.60035,2469.9,2022-5-12T11:21:10Z
2022-05-12T09:22:33Z,42.805,6.029,13.3002,4.60035,2469.914,2022-5-12T11:24:14Z
2022-05-12T09:25:36Z,42.805,6.029,13.3000,4.60035,2469.96,2022-5-12T11:27:17Z
2022-05-12T09:28:39Z,42.805,6.029,13.2998,4.60034,2469.9,2022-5-12T11:30:20Z
2022-05-12T09:31:42Z,42.805,6.029,13.3001,4.60035,2469.89,2022-5-12T11:33:23Z
2022-05-12T09:34:45Z,42.805,6.029,13.2998,4.60034,2469.876,2022-5-12T11:36:26Z
2022-05-12T09:37:49Z,42.805,6.029,13.3004,4.60034,2469.914,2022-5-12T11:39:29Z
2022-05-12T09:40:52Z,42.805,6.029,13.3000,4.60034,2469.876,2022-5-12T11:42:32Z
2022-05-12T09:43:55Z,42.805,6.029,13.3004,4.60033,2469.853,2022-5-12T11:45:36Z
2022-05-12T09:46:58Z,42.805,6.029,13.2999,4.60035,2469.914,2022-5-12T11:48:39Z
2022-05-12T09:50:01Z,42.805,6.029,13.3000,4.60034,2469.867,2022-5-12T11:51:42Z
2022-05-12T09:53:04Z,42.805,6.029,13.3002,4.60034,2469.89,2022-5-12T11:54:45Z
2022-05-12T09:56:07Z,42.805,6.029,13.3002,4.60034,2469.9,2022-5-12T11:57:48Z
2022-05-12T09:59:11Z,42.805,6.029,13.3005,4.60034,2469.89,2022-5-12T12:00:51Z
2022-05-12T10:02:14Z,42.805,6.029,13.3001,4.60033,2469.89,2022-5-12T12:03:54Z
2022-05-12T10:05:17Z,42.805,6.029,13.3001,4.60033,2469.876,2022-5-12T12:06:57Z
2022-05-12T10:08:20Z,42.805,6.029,13.3000,4.60033,2469.853,2022-5-12T12:10:01Z
2022-05-12T10:11:23Z,42.805,6.029,13.2998,4.60033,2469.853,2022-5-12T12:13:04Z
2022-05-12T10:14:26Z,42.805,6.029,13.2997,4.60033,2469.876,2022-5-12T12:16:07Z
2022-05-12T10:17:29Z,42.805,6.029,13.2998,4.60033,2469.89,2022-5-12T12:19:10Z
2022-05-12T10:20:32Z,42.805,6.029,13.2998,4.60033,2469.853,2022-5-12T12:22:13Z
2022-05-12T10:23:35Z,42.805,6.029,13.2998,4.60032,2469.914,2022-5-12T12:25:16Z
2022-05-12T10:26:39Z,42.805,6.029,13.3002,4.60032,2469.923,2022-5-12T12:28:19Z
2022-05-12T10:29:42Z,42.805,6.029,13.3002,4.60033,2469.876,2022-5-12T12:31:22Z
2022-05-12T10:32:45Z,42.805,6.029,13.2998,4.60033,2469.89,2022-5-12T12:34:26Z
2022-05-12T10:35:48Z,42.805,6.029,13.2999,4.60033,2469.9,2022-5-12T12:37:29Z
2022-05-12T10:38:51Z,42.805,6.029,13.2996,4.60033,2469.9,2022-5-12T12:40:32Z
2022-05-12T10:41:54Z,42.805,6.029,13.2997,4.60032,2469.89,2022-5-12T12:43:35Z
2022-05-12T10:44:57Z,42.805,6.029,13.2998,4.60033,2469.89,2022-5-12T12:46:38Z
2022-05-12T10:48:01Z,42.805,6.029,13.2995,4.60031,2469.867,2022-5-12T12:49:41Z
2022-05-12T10:51:04Z,42.805,6.029,13.2997,4.60032,2469.876,2022-5-12T12:52:44Z
2022-05-12T10:54:07Z,42.805,6.029,13.3000,4.60032,2469.9,2022-5-12T12:55:47Z
2022-05-12T10:57:10Z,42.805,6.029,13.3005,4.60032,2469.876,2022-5-12T12:58:51Z
2022-05-12T11:00:13Z,42.805,6.029,13.2999,4.60032,2469.876,2022-5-12T13:01:54Z
2022-05-12T11:03:16Z,42.805,6.029,13.3002,4.60032,2469.89,2022-5-12T13:04:57Z
2022-05-12T11:06:19Z,42.805,6.029,13.3001,4.60032,2469.876,2022-5-12T13:08:00Z
2022-05-12T11:09:22Z,42.805,6.029,13.2997,4.60032,2469.9,2022-5-12T13:11:03Z
2022-05-12T11:12:25Z,42.805,6.029,13.3002,4.60032,2469.876,2022-5-12T13:14:06Z
2022-05-12T11:15:29Z,42.805,6.029,13.3003,4.60032,2469.876,2022-5-12T13:17:09Z
2022-05-12T11:18:32Z,42.805,6.029,13.2998,4.60033,2469.9,2022-5-12T13:20:12Z
2022-05-12T11:21:35Z,42.805,6.029,13.2995,4.60034,2469.9,2022-5-12T13:23:16Z
2022-05-12T11:24:38Z,42.805,6.029,13.3000,4.60032,2469.923,2022-5-12T13:26:19Z
2022-05-12T11:27:41Z,42.805,6.029,13.2998,4.60032,2469.914,2022-5-12T13:29:22Z
2022-05-12T11:30:44Z,42.805,6.029,13.2999,4.60033,2469.876,2022-5-12T13:32:25Z
2022-05-12T11:33:47Z,42.805,6.029,13.2997,4.60033,2469.876,2022-5-12T13:35:28Z
2022-05-12T11:36:51Z,42.805,6.029,13.3001,4.60033,2469.89,2022-5-12T13:38:31Z
2022-05-12T11:39:54Z,42.805,6.029,13.2999,4.60033,2469.914,2022-5-12T13:41:34Z
2022-05-12T11:42:57Z,42.805,6.029,13.3001,4.60033,2469.876,2022-5-12T13:44:37Z
2022-05-12T11:46:00Z,42.805,6.029,13.2998,4.60033,2469.914,2022-5-12T13:47:41Z
2022-05-12T11:49:03Z,42.805,6.029,13.2998,4.60033,2469.914,2022-5-12T13:50:44Z
2022-05-12T11:52:06Z,42.805,6.029,13.3001,4.60033,2469.9,2022-5-12T13:53:47Z
2022-05-12T11:55:09Z,42.805,6.029,13.2997,4.60033,2469.89,2022-5-12T13:56:50Z
2022-05-12T11:58:12Z,42.805,6.029,13.3003,4.60032,2469.876,2022-5-12T13:59:53Z
2022-05-12T12:01:16Z,42.805,6.029,13.2999,4.60033,2469.914,2022-5-12T14:02:56Z
2022-05-12T12:04:19Z,42.805,6.029,13.2998,4.60033,2469.9,2022-5-12T14:05:59Z
2022-05-12T12:07:22Z,42.805,6.029,13.3002,4.60033,2469.923,2022-5-12T14:09:02Z
2022-05-12T12:10:25Z,42.805,6.029,13.2999,4.60033,2469.914,2022-5-12T14:12:06Z
2022-05-12T12:13:28Z,42.805,6.029,13.3002,4.60033,2469.89,2022-5-12T14:15:09Z
2022-05-12T12:16:31Z,42.805,6.029,13.3001,4.60033,2469.9,2022-5-12T14:18:12Z
2022-05-12T12:19:34Z,42.805,6.029,13.2999,4.60033,2469.89,2022-5-12T14:21:15Z
2022-05-12T12:22:37Z,42.805,6.029,13.3000,4.60032,2469.923,2022-5-12T14:24:18Z
2022-05-12T12:25:41Z,42.805,6.029,13.3000,4.60033,2469.9,2022-5-12T14:27:21Z
2022-05-12T12:28:44Z,42.805,6.029,13.3001,4.60033,2469.876,2022-5-12T14:30:24Z
2022-05-12T12:31:47Z,42.805,6.029,13.3000,4.60033,2469.923,2022-5-12T14:33:27Z
2022-05-12T12:34:50Z,42.805,6.029,13.2998,4.60032,2469.914,2022-5-12T14:36:31Z
2022-05-12T12:37:53Z,42.805,6.029,13.3000,4.60032,2469.914,2022-5-12T14:39:34Z
2022-05-12T12:40:56Z,42.805,6.029,13.3000,4.60032,2469.89,2022-5-12T14:42:37Z
2022-05-12T12:43:59Z,42.805,6.029,13.3000,4.60033,2469.914,2022-5-12T14:45:40Z
2022-05-12T12:47:02Z,42.805,6.029,13.2999,4.60032,2469.914,2022-5-12T14:48:43Z
2022-05-12T12:50:06Z,42.805,6.029,13.3000,4.60032,2469.923,2022-5-12T14:51:46Z
2022-05-12T12:53:09Z,42.805,6.029,13.3003,4.60032,2469.96,2022-5-12T14:54:49Z
2022-05-12T12:56:12Z,42.805,6.029,13.2998,4.60032,2469.9,2022-5-12T14:57:52Z
2022-05-12T12:59:15Z,42.805,6.029,13.2999,4.60033,2469.909,2022-5-12T15:00:56Z
2022-05-12T13:02:18Z,42.805,6.029,13.2999,4.60032,2469.947,2022-5-12T15:03:59Z
2022-05-12T13:05:21Z,42.805,6.029,13.2998,4.60032,2469.937,2022-5-12T15:07:02Z
2022-05-12T13:08:24Z,42.805,6.029,13.2998,4.60028,2469.923,2022-5-12T15:10:05Z
2022-05-12T13:11:27Z,42.805,6.029,13.3002,4.60031,2469.9,2022-5-12T15:13:08Z
2022-05-12T13:14:31Z,42.805,6.029,13.2998,4.60032,2469.923,2022-5-12T15:16:11Z
2022-05-12T13:17:34Z,42.805,6.029,13.3000,4.60032,2469.876,2022-5-12T15:19:14Z
2022-05-12T13:20:37Z,42.805,6.029,13.3002,4.60032,2469.914,2022-5-12T15:22:17Z
2022-05-12T13:23:40Z,42.805,6.029,13.2999,4.60031,2469.9,2022-5-12T15:25:21Z
2022-05-12T13:26:43Z,42.805,6.029,13.3001,4.60033,2469.914,2022-5-12T15:28:24Z
2022-05-12T13:29:46Z,42.805,6.029,13.2999,4.60032,2469.914,2022-5-12T15:31:27Z
2022-05-12T13:32:49Z,42.805,6.029,13.2998,4.60033,2469.937,2022-5-12T15:34:30Z
2022-05-12T13:35:52Z,42.805,6.029,13.3000,4.60032,2469.923,2022-5-12T15:37:33Z
2022-05-12T13:38:56Z,42.805,6.029,13.2997,4.60032,2469.923,2022-5-12T15:40:36Z
2022-05-12T13:41:59Z,42.805,6.029,13.2999,4.60032,2469.886,2022-5-12T15:43:39Z
2022-05-12T13:45:02Z,42.805,6.029,13.2999,4.60031,2469.876,2022-5-12T15:46:42Z
2022-05-12T13:48:05Z,42.805,6.029,13.2997,4.60031,2469.937,2022-5-12T15:49:46Z
2022-05-12T13:51:08Z,42.805,6.029,13.2998,4.60031,2469.923,2022-5-12T15:52:49Z
2022-05-12T13:54:11Z,42.805,6.029,13.3000,4.60032,2469.909,2022-5-12T15:55:52Z
2022-05-12T13:57:14Z,42.805,6.029,13.2997,4.60031,2469.937,2022-5-12T15:58:55Z
2022-05-12T14:00:17Z,42.805,6.029,13.2998,4.60031,2469.914,2022-5-12T16:01:58Z
2022-05-12T14:03:21Z,42.805,6.029,13.3001,4.60032,2469.923,2022-5-12T16:05:01Z
2022-05-12T14:06:24Z,42.805,6.029,13.3002,4.60032,2469.9,2022-5-12T16:08:04Z
2022-05-12T14:09:27Z,42.805,6.029,13.2998,4.60032,2469.923,2022-5-12T16:11:07Z
2022-05-12T14:12:30Z,42.805,6.029,13.2998,4.60033,2469.947,2022-5-12T16:14:11Z
2022-05-12T14:15:33Z,42.805,6.029,13.3002,4.60032,2469.947,2022-5-12T16:17:14Z
2022-05-12T14:18:36Z,42.805,6.029,13.2999,4.60031,2469.9,2022-5-12T16:20:17Z
2022-05-12T14:21:39Z,42.805,6.029,13.2997,4.60032,2469.947,2022-5-12T16:23:20Z
2022-05-12T14:24:42Z,42.805,6.029,13.2998,4.60032,2469.923,2022-5-12T16:26:23Z
2022-05-12T14:27:46Z,42.805,6.029,13.2996,4.60031,2469.914,2022-5-12T16:29:26Z
2022-05-12T14:30:49Z,42.805,6.029,13.2997,4.60032,2469.923,2022-5-12T16:32:29Z
2022-05-12T14:33:52Z,42.805,6.029,13.2999,4.60032,2469.923,2022-5-12T16:35:32Z
2022-05-12T14:36:55Z,42.805,6.029,13.3000,4.60033,2469.97,2022-5-12T16:38:36Z
2022-05-12T14:39:58Z,42.805,6.029,13.2998,4.60032,2469.956,2022-5-12T16:41:39Z
2022-05-12T14:43:01Z,42.805,6.029,13.2998,4.60031,2469.96,2022-5-12T16:44:42Z
2022-05-12T14:46:04Z,42.805,6.029,13.2999,4.60031,2469.947,2022-5-12T16:47:45Z
2022-05-12T14:49:07Z,42.805,6.029,13.3000,4.60032,2469.937,2022-5-12T16:50:48Z
2022-05-12T14:52:11Z,42.805,6.029,13.3000,4.60031,2469.933,2022-5-12T16:53:51Z
2022-05-12T14:55:14Z,42.805,6.029,13.3004,4.60032,2469.97,2022-5-12T16:56:54Z
2022-05-12T14:58:17Z,42.805,6.029,13.3001,4.60032,2469.97,2022-5-12T16:59:57Z
2022-05-12T15:01:20Z,42.805,6.029,13.2996,4.60032,2469.984,2022-5-12T17:03:01Z
2022-05-12T15:04:23Z,42.805,6.029,13.2996,4.60032,2469.97,2022-5-12T17:06:04Z
2022-05-12T15:07:26Z,42.805,6.029,13.2996,4.60032,2469.96,2022-5-12T17:09:07Z
2022-05-12T15:10:29Z,42.805,6.029,13.3001,4.60031,2469.937,2022-5-12T17:12:10Z
2022-05-12T15:13:32Z,42.805,6.029,13.3001,4.60031,2469.97,2022-5-12T17:15:13Z